User: anonymous   Login
Location: Unspecified
(0.0000°N, 0.0000°E)
Time: 20:14:34
(UTC+00:00)
Language:

AUBIESAT-1 - Orbit

View from above orbital plane
View from above orbital plane
View from above satellite
View from above satellite

Ground track
Ground track

The orbit data is extracted from the following two-line orbital elements,

1 37854U 11061E   16237.43204785  .00002389  00000-0  13885-3 0  9998
2 37854 101.6994 314.4772 0172366 232.3656 126.1806 15.02491522262341
Epoch (UTC): 24 August 2016 10:22:08
Eccentricity: 0.0172366
inclination: 101.6994°
perigee height: 439 km
apogee height: 679 km
right ascension of ascending node: 314.4772°
argument of perigee: 232.3656°
revolutions per day: 15.02491522
mean anomaly at epoch: 126.1806°
orbit number at epoch: 26234

The dashed part of the orbit path shows where the satellite is in the earth's shadow,  

DLR